Regional Weather Roundup
Issued by NWS

Home | Current Version | Previous Version | Graphics & Text | Print | Product List | Glossary On
Versions: 1 2 3 4 5 6 7 8 9 10 11 12 13 14 15 16 17 18 19 20 21 22 23 24 25 26 27 28 29 30 31 32 33 34 35 36 37 38 39 40 41 42 43 44 45 46 47 48 49 50
000
ASUS45 KBOU 201007
RWRCO

WEATHER ROUNDUP FOR COLORADO
NATIONAL WEATHER SERVICE DENVER/BOULDER CO
400 AM MDT SUN AUG 20 2017

NOTE: "FAIR" INDICATES FEW OR NO CLOUDS BELOW 12000 FEET WITH NO
SIGNIFICANT WEATHER AND/OR OBSTRUCTIONS TO VISIBILITY.

COZ001>005-013-030-031-201100-
...NORTHWEST COLORADO...

CITY           SKY/WX    TMP DP  RH WIND       PRES   REMARKS
CRAIG          FAIR      47  37  68 CALM      30.19R
HAYDEN         FAIR      55  35  47 E13       30.21F
MEEKER         FAIR      48  37  65 E6        30.21S
RABBIT EARS PA FAIR      52  32  46 W7        30.49S
STEAMBOAT SPGS FAIR      50  37  59 CALM      30.24S
WALDEN         FAIR      46  32  57 SE5       30.33R
$$

COZ006>008-011-201100-
...WEST CENTRAL VALLEYS...

CITY           SKY/WX    TMP DP  RH WIND       PRES   REMARKS
GRAND JUNCTION FAIR      64  39  39 SE10      30.07R
MONTROSE       FAIR      59  39  47 S6        30.17R
EAGLE          FAIR      52  34  50 SE3       30.27R
RIFLE          FAIR      53  37  54 CALM      30.16R
DELTA          FAIR      63  39  41 E5        30.12S
NUCLA          FAIR      57  34  41 SE9       30.19S
$$

COZ017>023-064>068-201100-
...SOUTHWEST COLORADO...

CITY           SKY/WX    TMP DP  RH WIND       PRES   REMARKS
DURANGO        FAIR      58  38  47 CALM      30.22S
CORTEZ         FAIR      60  40  47 N6        30.14S
PAGOSA SPRINGS FAIR      57  33  41 E3        30.31F
TELLURIDE      FAIR      52  32  47 SE6       30.40F
WOLF CREEK PAS FAIR      45  36  70 SW12      30.65S
$$

COZ009-010-012-014-032>034-037-058>063-201100-
...CENTRAL COLORADO...

CITY           SKY/WX    TMP DP  RH WIND       PRES   REMARKS
ASPEN          FAIR      50  34  54 SW8       30.30S
BUENA VISTA    FAIR      52  33  48 NW7       30.32F
COPPER MTN     FAIR      54  25  32 W3        30.61S
BERTHOUD PASS  FAIR      43  37  81 NW14      30.63S
COTTONWOOD PAS FAIR      61  25  25 W7        30.44F
GUNNISON       FAIR      42  37  82 CALM      30.34R
KREMMLING      FAIR      50  36  57 NW3       30.32R
LEADVILLE      FAIR      41  29  62 NE3       30.45S
MONARCH PASS   FAIR      50  23  34 CALM      30.70F
SALIDA         FAIR      56  36  47 W7        30.37S
SUNLIGHT       FAIR      54  28  37 NW3       30.54S
WILKERSON PASS FAIR      52  27  37 NW5       30.57F
$$

COZ069>075-201100-
...SAN LUIS VALLEY/SANGRE DE CRISTO MOUNTAINS...

CITY           SKY/WX    TMP DP  RH WIND       PRES   REMARKS
ALAMOSA        FAIR      48  42  80 SE5       30.28S
DEL NORTE      MOCLDY    55  34  45 W15       30.31F
LA VETA PASS   NOT AVBL
SAGUACHE       FAIR      52  34  50 N6        30.31S
$$

COZ035-036-038>040-201100-
...NORTHERN COLORADO FRONT RANGE...

CITY           SKY/WX    TMP DP  RH WIND       PRES   REMARKS
DENVER INTL AP FAIR      67  40  37 SW12      30.06F
DMNS CITY PARK   N/A     66  39  38 SE8       30.07S
AURORA         PTCLDY    64  41  42 W7        30.10R
FRONT RANGE AP FAIR      68  41  37 SW8       30.08F
ERIE MUNI ARPT FAIR      59  42  54 CALM      30.10F
BOULDER MUN AP FAIR      68  41  37 SE3       30.06S
CENTENNIAL     FAIR      59  42  53 CALM      30.11S
BROOMFIELD     NOT AVBL
FORT COLLINS   FAIR      64  43  46 N3        30.05S
LONGMONT       FAIR      59  46  62 CALM      30.06S
$$

COZ041-046-047-076>085-087-088-201100-
...PIKES PEAK/PALMER DIVIDE AND SOUTHERN FOOTHILLS...

CITY           SKY/WX    TMP DP  RH WIND       PRES   REMARKS
COLO. SPRINGS  FAIR      62  45  53 N8        30.13F
A. F. ACADEMY  FAIR      56  43  62 N7        30.16S
SCHRIEVER AFB  FAIR      67  39  36 NW8       30.13S
CHEYENNE MTN   FAIR      72  33  23 CALM      30.13F
ELLICOTT       NOT AVBL
FALCON         FAIR      62  40  45 NW10      30.19F
FORT CARSON    FAIR      62  43  49 NW13      30.09F
LIMON          FAIR      52  49  89 N7        30.07S
MONUMENT HILL  FAIR      54  41  62 W7        30.22S
CANON CITY     CLEAR     70  45  40 W16       30.07S
WALSENBURG     NOT AVBL
TRINIDAD       FAIR      64  46  52 NW9       30.10R
$$

COZ042>045-048>051-090-091-201100-
...NORTHEAST COLORADO...

CITY           SKY/WX    TMP DP  RH WIND       PRES   REMARKS
GREELEY ARPT   FAIR      55  47  74 NW7       30.03S
AKRON          FAIR      63  45  51 W10       29.99F
BURLINGTON     FAIR      67  52  58 SW8       29.97S
WRAY           NOT AVBL
YUMA           FAIR      59  37  44 W8        29.95S
STERLING       FAIR      54  50  87 CALM      29.95S
HOLYOKE        NOT AVBL
FORT MORGAN    FAIR      63  41  45 W7        30.00S
$$

COZ086-089-092>099-201100-
...SOUTHEAST COLORADO...

CITY           SKY/WX    TMP DP  RH WIND       PRES   REMARKS
PUEBLO         FAIR      62  48  60 W6        30.01F
LA JUNTA       FAIR      64  51  62 SE7       29.98F
LAMAR          FAIR      54  52  93 S6        29.95S
SPRINGFIELD      N/A     62  57  83 SW7       30.01F
$$



USA.gov is the U.S. government's official web portal to all federal, state and local government web resources and services.